This is the latest recevied weather packets stored in our database for station/object DH1FR-13. If no packets are shown the sender has not sent any weather packets the latest 10 day(s).
| Time | Temp. | Humidity | Pressure | Rain* | Wind** | Luminosity | Snow |
|---|---|---|---|---|---|---|---|
| 1787641200 | 13.89° C | 78% | 1017.5 hPa | 0 mm | 0 m/s | - | - |
| 1787640600 | 13.89° C | 79% | 1017.8 hPa | 0 mm | 0 m/s | - | - |
| 1787640001 | 13.89° C | 79% | 1017.6 hPa | 0 mm | 0 m/s | - | - |
| 1787639401 | 13.89° C | 79% | 1017.6 hPa | 0 mm | 0 m/s | - | - |
| 1787638801 | 13.89° C | 78% | 1017.5 hPa | 0 mm | 0 m/s | - | - |
| 1787638201 | 13.33° C | 80% | 1017.6 hPa | 0 mm | 0 m/s | - | - |
| 1787637601 | 13.33° C | 81% | 1017.7 hPa | 0 mm | 0 m/s | - | - |
| 1787637000 | 12.78° C | 83% | 1017.4 hPa | 0 mm | 0 m/s | - | - |
| 1787636401 | 12.22° C | 84% | 1017.5 hPa | 0 mm | 0 m/s | - | - |
| 1787635800 | 12.22° C | 84% | 1017.1 hPa | 0 mm | 0 m/s | - | - |
| 1787635201 | 12.22° C | 84% | 1017.4 hPa | 0 mm | 0 m/s | - | - |
| 1787634600 | 11.67° C | 86% | 1017.6 hPa | 0 mm | 0 m/s | - | - |
| 1787634000 | 11.67° C | 87% | 1017.6 hPa | 0 mm | 0 m/s | - | - |
| 1787633401 | 11.67° C | 87% | 1017.7 hPa | 0 mm | 0 m/s | - | - |
| 1787632801 | 11.67° C | 87% | 1017.8 hPa | 0 mm | 0 m/s | - | - |
| 1787632200 | 11.67° C | 87% | 1017.6 hPa | 0 mm | 0 m/s | - | - |
| 1787631601 | 11.11° C | 89% | 1017.6 hPa | 0 mm | 0 m/s | - | - |
| 1787631000 | 10.56° C | 90% | 1017.6 hPa | 0 mm | 0 m/s | - | - |
| 1787630401 | 10.56° C | 91% | 1017.6 hPa | 0 mm | 0 m/s | - | - |
| 1787629801 | 10.56° C | 91% | 1017.7 hPa | 0 mm | 0 m/s | - | - |
| 1787629200 | 10° C | 91% | 1017.7 hPa | 0 mm | 0 m/s | - | - |
| 1787628601 | 10.56° C | 92% | 1018.1 hPa | 0 mm | 0 m/s | - | - |
| 1787628001 | 10.56° C | 91% | 1018 hPa | 0 mm | 0 m/s | - | - |
| 1787627401 | 10.56° C | 90% | 1018.4 hPa | 0 mm | 0 m/s | - | - |
| 1787626800 | 10.56° C | 91% | 1018.5 hPa | 0 mm | 0 m/s | - | - |
* Rain latest hour (hover to see other rain measurements)
** Current wind speed in m/s (hover to see current wind gust speed)